Location: Moscow Pond
(43.6842°N, 73.2366°W)
Time: 06:49:32
(UTC+00:00)

Cosmos 1153 Rocket - Pass Details

Date: 08 November 2025
Orbit: 952 x 1006 km, 82.9° (Epoch: 06 December)

Event Time Altitude Azimuth Distance (km) Brightness Sun altitude
Rises 08:52:56 0° 352° (N) 3,647 7.5 -30.1°
Reaches altitude 10° 08:55:25 10° 353° (N) 2,702 6.8 -29.6°
Maximum altitude 09:01:37 86° 82° (E) 975 4.4 -28.5°
Drops below altitude 10° 09:07:51 10° 172° (S) 2,717 6.9 -27.4°
Sets 09:10:22 0° 173° (S) 3,668 7.6 -26.9°
